Theta_e
301 300 298 298 298 297 297 296 295 294 292 291 289 289 289 288 286 280 279 280 280 282 283 282 283 284 284 284 284 283 283 284 287 286 285 283 281 285 290 292 293 293 293 293 294 294 294 294 294 294 295 295 296 296 296 296 297 297 297 297 297 298 298 298 297 297 297 297 297 297 297 297 298 298
299 298 297 297 297 297 296 296 294 293 293 290 289 289 289 290 288 285 282 281 282 281 282 283 282 283 284 284 283 283 283 286 287 284 284 283 282 286 289 291 292 292 293 293 293 293 293 294 294 294 294 295 295 296 296 296 296 296 297 298 298 298 298 298 297 297 296 297 297 297 297 298 299 298
297 296 296 295 296 295 295 294 293 291 291 290 289 288 288 287 289 286 284 282 282 283 281 282 283 283 283 284 283 283 283 285 286 284 283 283 285 286 287 289 290 291 291 292 292 293 293 293 293 294 294 294 295 295 295 295 295 295 296 297 297 297 297 296 296 296 296 296 296 297 298 297 297 297
295 295 295 294 295 294 292 292 291 290 289 289 288 288 287 287 287 287 285 285 282 283 282 282 282 283 283 283 283 283 283 284 287 284 283 283 285 284 283 286 288 289 290 291 292 292 292 292 292 293 293 293 294 294 294 294 295 295 296 296 297 296 296 295 295 295 295 295 295 296 296 296 296 296
293 294 294 294 294 293 291 291 291 290 289 288 288 288 287 287 285 286 285 283 279 280 281 283 282 282 283 282 283 282 282 282 283 285 283 282 282 282 281 281 284 286 288 289 290 291 292 292 292 292 293 293 293 293 294 294 294 294 295 295 296 296 295 295 294 295 294 295 294 295 295 295 294 294
293 293 293 293 292 290 291 290 289 289 288 287 287 286 286 286 285 285 283 281 281 280 279 281 281 281 283 282 283 282 282 282 282 282 282 282 282 281 281 280 281 285 287 289 290 291 292 292 292 292 292 293 292 293 294 293 294 294 294 293 294 294 295 296 295 294 293 293 295 294 295 295 296 295
292 292 291 292 291 288 288 288 288 287 287 287 287 286 286 285 284 283 283 282 280 280 279 281 280 281 281 281 281 282 282 282 282 281 281 281 282 282 281 281 281 284 287 289 290 291 291 291 292 292 292 292 292 292 293 292 292 292 292 293 292 292 292 293 293 293 292 294 294 293 294 294 294 294
291 291 291 291 289 287 287 286 285 285 285 285 286 285 284 285 283 282 281 283 282 280 279 279 280 281 281 281 281 282 282 281 281 281 281 281 280 281 281 281 280 282 286 288 289 289 290 291 291 291 291 291 290 290 291 291 291 290 290 291 291 290 290 291 290 291 291 292 293 292 292 293 293 292
291 291 291 290 288 287 287 285 284 284 284 284 284 284 283 283 281 281 281 281 281 281 280 279 279 281 280 281 280 281 280 280 280 280 279 280 280 279 280 280 280 283 286 287 287 288 288 289 289 289 289 289 289 289 289 289 289 289 289 288 288 289 289 289 289 289 290 289 289 290 292 292 292 292
291 291 291 289 287 286 286 285 284 284 284 283 283 282 281 281 281 281 280 281 281 281 280 280 279 279 279 279 279 279 280 280 279 278 278 277 277 278 278 278 279 279 279 278 280 282 284 284 286 287 287 288 288 288 288 288 288 287 287 287 286 287 288 288 288 288 288 288 289 290 290 290 291 290
291 290 290 288 287 286 287 285 284 283 283 283 282 282 281 281 281 281 281 282 282 282 281 280 280 280 280 280 279 279 279 279 279 278 277 277 277 277 277 277 279 279 280 282 284 284 284 285 284 285 285 286 286 286 286 286 286 285 285 286 286 287 287 288 287 287 288 288 288 288 288 288 289 290
290 290 289 288 287 287 287 285 284 284 283 283 282 282 282 282 283 282 282 283 282 282 281 281 279 280 279 279 278 277 277 277 277 277 277 276 277 277 277 277 277 278 279 278 278 280 281 281 282 284 284 284 285 285 284 284 284 283 284 285 286 286 286 287 287 287 287 287 287 287 287 287 287 289
289 288 288 287 287 286 286 286 285 285 285 283 282 282 283 283 284 283 283 283 282 282 281 280 280 279 279 278 278 277 278 278 279 279 277 276 276 276 276 277 278 278 276 277 277 277 278 278 278 278 277 278 281 281 283 283 282 283 285 285 285 285 286 286 286 286 286 286 286 286 286 286 286 285
287 287 287 286 285 285 285 285 285 286 286 285 284 283 284 284 284 283 283 282 282 281 281 280 279 278 278 278 278 279 279 280 278 277 277 276 276 276 276 277 276 276 277 278 277 277 278 277 277 278 277 278 280 279 278 277 281 283 284 284 284 284 285 285 285 285 285 285 285 285 285 285 284 284
286 286 286 285 285 285 284 285 286 286 286 286 286 286 286 286 285 284 283 282 282 281 281 281 280 280 279 279 280 280 280 278 278 278 276 276 276 275 274 273 277 278 277 277 274 275 277 276 276 276 277 278 278 278 278 282 282 282 283 283 283 284 284 284 284 284 284 284 284 284 284 283 283 283
286 285 284 284 284 284 284 284 285 285 286 287 287 287 287 288 288 287 285 283 281 281 280 279 280 280 279 280 280 279 279 278 277 276 276 276 275 275 274 276 275 278 279 276 275 275 276 277 276 275 277 277 277 277 280 281 282 283 283 283 283 283 283 283 283 283 283 283 283 283 283 283 283 282
285 283 282 282 283 283 284 284 284 284 285 287 288 288 287 287 287 287 287 286 284 283 281 280 280 280 280 280 280 280 279 279 277 277 276 276 276 276 276 276 277 278 278 276 275 274 276 276 274 274 276 276 275 275 278 281 282 282 282 282 282 282 282 282 282 282 282 282 282 282 281 281 281 281
283 283 282 281 281 282 283 283 283 284 284 285 285 285 284 285 286 286 286 285 285 284 282 281 280 281 281 280 280 280 281 278 277 276 275 277 276 276 276 277 277 278 279 277 276 273 272 274 275 273 273 275 274 274 277 280 280 281 281 281 281 281 281 281 281 281 281 281 281 281 280 280 280 280
283 282 282 282 282 282 282 283 283 284 284 284 284 284 283 284 283 283 283 283 282 282 282 282 281 281 281 281 280 280 280 280 279 278 277 277 277 276 276 275 277 277 279 277 275 269 273 275 272 272 271 273 272 273 275 277 278 279 279 279 279 279 279 279 280 280 280 279 279 279 279 279 279 280
282 282 282 282 282 282 282 284 286 285 284 284 283 282 281 281 281 281 284 285 285 283 283 282 282 281 282 283 281 280 279 279 278 278 276 275 273 273 274 275 276 275 276 275 274 272 272 273 269 269 271 271 270 271 270 275 276 277 278 278 278 278 278 278 278 278 278 278 278 278 278 279 279 278
282 282 282 282 282 282 282 285 287 287 286 283 282 281 280 280 280 280 283 285 286 286 285 285 285 285 285 285 285 285 285 282 280 277 275 273 275 275 273 274 274 271 272 273 273 272 269 269 268 267 268 268 268 268 269 269 273 275 276 276 276 276 277 277 277 277 277 277 277 277 277 278 278 276
281 282 283 283 282 282 283 287 288 288 285 283 282 280 279 279 279 279 280 282 283 285 285 285 285 285 285 285 284 284 284 284 282 277 274 276 276 274 275 272 271 272 272 270 273 268 266 265 266 264 265 265 265 267 268 269 270 272 272 274 274 275 276 276 276 276 276 276 276 276 277 277 275 271
281 281 283 283 283 283 285 288 288 287 284 282 281 281 280 279 278 279 279 279 279 280 280 280 280 280 282 280 279 281 282 281 279 277 274 272 273 272 272 271 271 270 271 270 271 265 261 262 262 263 260 258 262 266 266 267 267 268 268 269 268 273 274 274 274 274 274 275 275 275 276 276 275 270
280 281 282 284 286 286 288 288 288 286 285 282 281 281 280 279 278 279 279 279 279 279 279 278 279 278 279 278 277 276 275 276 276 276 275 273 270 268 268 270 271 268 267 268 269 263 259 260 258 261 261 259 257 262 265 265 267 267 268 267 266 270 271 271 270 272 273 273 274 274 274 274 274 270
279 280 281 283 286 287 288 288 287 286 286 284 282 282 280 280 280 280 278 279 280 278 278 278 278 277 277 276 275 274 274 274 274 274 274 271 270 268 265 264 265 264 264 267 269 260 256 257 257 258 258 258 260 260 263 265 266 266 267 266 265 266 266 266 267 266 269 271 272 273 273 274 274 271
279 280 281 282 285 287 288 287 287 287 286 285 281 282 283 284 283 279 279 280 279 278 278 277 276 274 273 272 272 272 272 272 272 269 268 271 268 267 265 263 259 258 259 263 270 260 254 255 258 256 257 258 259 263 261 262 265 265 265 265 265 265 266 265 265 265 266 266 266 268 270 273 272 273
279 280 281 283 286 287 287 287 287 287 286 284 283 285 285 284 283 281 279 279 278 277 275 275 273 273 272 271 270 269 269 268 267 267 266 265 265 265 266 266 264 263 262 262 264 263 258 255 259 259 257 262 261 261 262 262 262 264 263 263 264 265 265 265 264 265 265 265 265 270 270 270 271 271
280 281 282 285 287 287 287 287 287 287 284 283 285 285 285 284 282 279 278 276 275 274 273 272 272 271 270 269 268 267 265 265 264 265 264 263 263 263 262 263 264 263 262 261 261 261 260 256 257 259 260 261 261 260 260 262 262 262 261 263 263 264 264 264 264 264 264 265 265 265 264 264 264 264
281 283 286 287 287 287 287 287 287 285 284 285 285 285 285 282 277 276 275 274 272 271 270 270 269 267 266 267 267 265 264 263 264 263 261 260 260 259 259 259 260 260 261 260 260 260 260 260 257 258 258 260 260 260 260 258 260 259 261 260 259 261 263 264 264 263 263 264 264 264 263 263 263 264
285 286 287 287 286 286 286 285 283 281 283 284 285 283 280 275 274 273 272 271 271 270 268 268 266 265 265 265 264 263 262 262 260 259 257 258 259 257 256 258 258 256 255 256 259 260 260 260 260 259 258 257 259 257 257 257 257 259 260 259 260 261 262 263 263 263 263 263 263 263 263 263 263 263
285 286 285 285 286 285 284 282 282 282 283 280 278 274 273 272 272 272 271 270 270 268 267 265 264 263 263 263 262 260 261 259 260 260 259 256 257 257 255 255 255 254 257 254 255 260 260 261 261 261 256 256 255 257 257 256 256 257 258 259 259 257 259 261 262 262 262 262 262 262 262 263 263 264
285 284 284 284 281 280 279 278 276 275 274 273 272 272 271 270 269 270 271 270 266 265 265 263 262 260 260 259 259 258 258 259 258 259 257 255 256 257 254 254 255 254 252 253 253 256 260 260 259 259 259 258 255 254 254 254 255 255 256 258 258 259 260 259 260 260 261 261 260 259 261 262 262 263
281 280 278 277 276 276 275 274 273 272 271 270 270 270 269 268 267 266 265 265 264 263 263 262 262 260 258 257 257 257 257 256 256 256 256 255 255 253 251 252 252 253 253 251 253 255 255 256 257 258 259 257 259 258 254 253 253 253 252 256 257 257 257 259 259 259 260 259 258 259 259 261 262 263
278 277 276 275 274 274 274 273 272 271 270 269 268 268 269 266 264 263 263 263 262 261 262 261 260 259 259 257 256 256 256 255 255 256 260 253 254 252 250 251 251 252 254 252 252 253 253 252 254 256 255 256 256 257 257 254 254 253 255 256 255 255 257 258 258 259 259 259 259 258 258 259 261 263
276 275 274 273 273 273 273 273 272 271 270 269 268 267 266 263 266 263 262 261 260 261 260 259 259 258 258 257 256 256 256 256 253 252 254 252 251 252 252 251 250 251 251 251 252 252 253 252 251 251 251 254 256 254 259 257 250 253 254 256 254 255 256 257 258 258 259 258 259 258 258 259 260 262
274 274 274 273 272 273 272 272 272 270 269 268 267 266 265 264 262 263 261 261 261 260 259 259 257 257 256 256 255 255 255 256 252 252 251 250 251 251 250 251 252 252 251 250 251 252 252 253 251 252 251 250 249 251 252 262 263 257 254 254 253 255 256 256 257 258 258 258 260 260 258 257 258 261
273 273 273 273 272 272 272 272 271 269 268 267 267 266 266 264 262 262 262 262 260 258 259 258 257 255 255 255 256 256 256 254 251 252 252 250 251 251 251 252 253 252 251 250 250 251 250 250 252 250 249 249 248 249 252 251 259 263 254 252 256 257 256 256 256 257 259 260 259 259 258 258 258 261
273 273 272 272 272 272 271 270 269 268 267 266 265 264 264 262 260 259 259 260 258 256 259 257 255 255 255 255 255 253 252 252 252 252 252 249 249 248 249 249 248 249 249 250 251 251 249 249 249 249 248 248 248 250 251 253 253 255 263 260 257 257 257 256 256 257 258 259 259 260 261 259 260 261
273 272 272 271 271 270 270 269 268 267 265 265 264 263 261 258 258 257 259 256 257 255 254 254 254 255 255 254 253 254 253 252 251 251 250 249 251 249 248 249 249 249 249 251 250 249 248 248 249 248 248 250 251 253 254 253 254 257 259 263 259 255 256 258 258 259 259 258 259 261 262 263 264 268
269 269 270 270 270 269 267 266 266 264 264 262 261 259 259 258 257 257 256 255 254 253 254 254 255 255 252 253 253 251 251 252 252 250 251 250 251 251 249 250 249 249 250 250 250 250 249 249 249 249 250 253 253 255 253 254 254 254 253 256 262 260 259 259 259 258 258 260 260 259 259 260 259 260
266 268 265 266 266 265 265 263 262 261 260 258 257 260 257 257 257 256 255 254 255 253 252 253 255 253 254 253 252 253 253 251 250 249 250 251 253 253 253 256 252 250 249 250 249 249 250 250 253 260 254 249 249 248 249 249 251 253 253 254 259 262 264 264 260 259 259 260 260 259 259 258 258 260
265 263 260 262 264 262 262 261 259 259 257 257 258 256 255 255 255 259 258 258 255 253 253 253 253 253 252 252 252 253 252 252 250 250 251 250 249 252 254 252 249 248 248 249 249 251 252 252 253 251 249 249 250 249 248 248 250 252 252 253 254 259 261 263 264 264 262 261 260 258 258 259 261 260
261 261 260 257 258 259 259 260 257 258 256 255 255 255 255 253 254 257 253 255 254 253 253 253 252 252 252 250 250 252 251 251 250 251 250 250 250 250 249 249 250 249 249 250 250 249 251 250 250 248 247 247 249 249 249 250 250 250 251 252 253 254 255 260 261 263 264 264 264 263 262 261 259 258
261 261 259 258 258 257 255 256 256 254 254 255 254 254 255 255 255 256 255 255 254 254 253 252 251 251 252 250 249 249 251 251 249 248 250 250 250 250 249 250 251 250 249 250 249 250 248 248 248 248 248 248 247 247 249 248 249 250 250 251 252 252 252 253 254 258 259 260 262 265 266 267 267 267
259 259 257 254 254 253 253 253 254 253 253 253 253 254 254 253 255 254 253 253 253 253 252 252 251 250 250 250 250 251 251 255 252 250 250 250 251 251 252 251 251 251 250 249 248 249 248 247 246 247 247 247 247 248 250 250 250 250 251 250 250 251 251 252 252 252 253 253 259 264 266 267 267 267
Wind_Speed
12 11 13 12 11 10 9 8 9 9 8 8 9 11 13 11 10 7 9 10 10 8 9 7 8 10 8 8 7 8 8 8 9 6 6 6 5 8 12 13 13 12 12 12 12 13 14 14 15 15 16 16 17 17 17 18 19 20 21 22 24 25 26 26 25 25 27 28 28 30 30 29 29 29
11 11 10 9 10 9 9 10 10 9 11 9 10 11 10 9 12 10 11 11 9 5 6 6 4 7 9 7 7 7 8 9 10 6 6 6 6 9 11 13 13 12 11 12 12 13 14 14 15 15 16 16 17 18 18 19 20 21 23 24 26 26 27 26 26 27 28 29 30 30 29 29 30 30
10 10 12 10 10 8 10 9 8 8 9 9 9 10 9 8 9 9 7 6 3 6 7 6 2 5 7 6 6 5 5 6 9 7 6 6 7 9 8 11 11 11 11 11 12 13 14 15 15 16 17 17 18 18 19 20 21 22 24 25 26 26 27 26 26 28 29 30 30 29 30 30 30 31
8 10 11 10 10 9 7 8 9 9 9 9 9 9 8 7 5 7 7 7 4 2 4 5 3 3 7 7 7 6 4 4 9 6 6 5 5 5 4 7 10 11 11 12 13 14 15 16 16 17 17 18 19 19 20 21 22 24 25 26 26 26 27 27 28 29 30 30 29 29 30 30 31 31
8 9 11 10 10 7 8 9 8 9 10 9 9 8 8 9 6 8 6 7 4 0 2 4 6 3 5 6 6 6 5 4 5 4 4 3 3 3 4 4 7 10 11 12 13 14 15 16 17 17 17 18 19 19 21 22 22 23 24 25 26 27 28 28 28 29 29 30 29 30 29 30 32 32
8 9 11 11 9 9 11 9 9 9 9 9 9 9 10 10 9 8 8 5 6 6 2 3 3 3 4 5 4 7 6 5 3 4 3 2 3 4 4 4 5 9 10 11 13 14 16 17 17 17 17 18 18 19 21 22 23 23 23 24 25 27 27 28 29 29 30 30 30 31 31 31 32 33
9 9 10 10 9 6 8 9 9 7 9 9 11 11 8 9 9 8 6 6 4 9 4 4 5 5 5 5 5 5 3 2 2 3 3 4 3 3 4 5 5 7 10 12 14 16 16 17 18 18 18 18 19 20 21 21 22 23 23 24 25 25 27 28 29 30 30 31 30 30 30 31 33 32
9 11 10 9 9 9 9 8 7 7 7 8 9 9 6 6 8 7 5 8 8 6 9 4 7 5 6 2 2 4 2 2 2 3 2 1 3 3 3 4 5 6 10 13 14 16 16 17 17 17 17 18 19 20 21 21 21 22 23 24 25 27 28 29 29 29 32 29 31 31 31 31 31 31
10 10 11 10 9 9 10 7 8 8 9 7 7 7 6 6 6 4 4 4 7 9 9 6 2 3 2 2 3 4 5 1 1 1 3 3 2 2 3 3 4 7 11 12 14 15 15 15 15 16 17 18 18 18 18 19 20 22 24 24 25 26 26 27 27 27 29 30 29 29 29 29 29 29
9 10 10 8 9 10 12 11 9 8 9 8 8 8 7 7 7 7 5 5 6 8 8 9 5 3 5 3 2 3 4 3 2 2 2 1 2 3 4 4 3 2 2 3 5 7 8 10 13 14 14 15 15 16 19 20 21 21 22 23 24 24 25 26 26 27 28 26 27 28 28 28 29 27
8 8 8 8 9 11 10 11 11 10 9 9 9 9 8 7 9 8 7 7 7 6 6 2 2 5 1 3 3 1 3 3 3 3 1 2 2 3 3 4 3 2 3 5 7 7 7 8 6 8 11 15 17 18 17 18 19 20 21 22 23 24 25 27 28 28 27 27 27 27 28 28 28 28
8 8 8 9 10 11 11 11 10 12 11 8 8 7 8 9 9 8 7 7 7 7 6 5 5 3 4 2 2 3 3 1 2 4 4 4 3 2 1 2 3 2 1 2 4 3 4 5 7 9 9 11 15 16 15 15 17 20 20 21 24 25 26 27 29 28 28 28 27 27 27 28 27 28
7 7 7 8 9 10 11 13 13 12 12 12 10 7 9 9 9 8 7 7 7 6 6 4 3 5 4 4 5 4 5 6 6 3 5 3 3 2 2 4 4 2 0 0 1 4 3 4 5 5 4 5 6 7 11 10 14 16 21 23 24 25 25 26 27 28 27 28 28 28 27 27 25 24
7 8 8 8 11 12 13 14 15 15 15 14 13 12 11 11 9 8 7 6 6 6 6 6 6 6 6 6 7 6 5 4 2 3 3 3 3 1 1 3 1 1 1 2 3 4 4 3 4 3 4 4 3 3 4 5 10 18 23 24 24 25 25 25 26 27 27 27 27 27 27 26 25 24
8 6 7 6 9 11 12 13 17 17 17 16 16 15 14 12 11 9 8 8 8 7 7 5 5 6 6 6 5 5 4 3 4 3 3 4 2 1 1 3 3 2 2 2 2 4 3 2 3 3 4 4 3 3 4 15 20 21 22 23 23 24 24 25 25 26 26 27 28 28 27 27 27 27
8 8 7 7 7 9 11 11 12 13 16 18 19 18 16 15 11 11 12 10 7 6 7 6 6 6 6 6 5 4 4 3 3 3 3 2 2 1 0 3 3 2 1 3 4 5 2 1 3 2 3 1 1 3 11 19 20 22 22 22 23 23 23 24 25 26 27 28 28 28 28 28 28 27
8 8 7 7 7 8 15 12 11 12 12 14 18 17 15 13 11 9 6 5 8 8 6 7 6 6 5 6 5 5 4 4 4 2 2 2 2 2 2 3 1 4 3 3 4 4 3 1 2 1 3 1 2 5 9 17 21 22 22 22 22 23 24 25 26 25 26 26 27 27 28 27 27 26
9 9 10 9 9 9 11 11 12 12 12 10 11 10 8 7 9 10 11 10 9 7 7 7 7 5 6 5 4 4 5 4 3 3 3 3 3 2 3 2 3 4 2 3 5 6 3 2 2 2 1 2 4 5 11 19 18 19 20 21 22 22 22 23 24 25 26 27 27 27 28 28 29 28
9 9 8 9 10 11 12 11 13 12 11 10 10 10 8 7 6 6 7 6 6 5 4 5 5 5 5 4 4 4 3 5 4 5 4 4 3 2 0 1 2 3 1 2 4 5 5 3 4 2 3 5 5 5 9 14 15 18 19 20 21 21 22 23 24 24 26 27 28 28 28 28 29 28
7 8 9 9 10 11 11 14 20 15 11 11 12 11 9 8 6 4 4 7 6 5 4 4 5 5 5 5 4 4 4 3 3 3 2 3 3 3 1 1 1 1 3 7 2 3 4 3 6 6 3 4 7 5 3 10 16 17 19 19 19 21 21 23 23 25 26 27 28 28 28 28 28 28
6 7 8 8 9 10 10 16 19 20 17 11 12 11 9 7 7 5 5 8 9 9 8 8 8 7 8 8 8 8 9 8 5 5 4 2 4 3 2 3 2 1 2 3 4 2 5 4 6 8 5 5 7 2 3 5 13 17 17 18 19 20 22 22 23 24 25 26 26 27 28 27 28 28
6 7 11 9 9 10 11 17 18 19 16 12 11 11 11 9 8 6 4 4 5 9 9 9 9 9 9 9 6 5 3 7 6 5 4 2 4 2 1 3 0 2 3 3 4 3 3 3 5 7 7 4 1 4 5 7 7 12 11 17 20 21 22 23 23 23 24 24 24 24 26 26 26 15
5 7 9 13 13 12 15 20 18 17 13 11 11 11 11 9 9 7 7 7 7 5 5 4 4 3 5 4 6 8 13 11 8 5 4 3 4 4 2 1 1 2 2 2 3 3 3 5 6 4 7 4 2 4 4 6 5 5 4 7 10 19 21 21 21 21 21 22 23 24 25 25 22 13
4 6 6 10 16 18 20 21 20 17 16 12 10 10 10 10 9 7 7 6 6 6 5 4 4 3 5 6 6 6 6 6 4 6 5 4 5 5 3 2 2 3 1 2 4 2 2 2 2 2 1 3 6 3 5 3 6 5 6 8 7 14 16 17 15 20 20 20 23 23 24 23 23 14
6 6 7 7 13 19 22 21 20 18 15 13 10 9 9 8 10 11 8 7 8 6 6 5 4 5 5 5 5 5 5 5 5 5 6 4 3 5 5 3 3 1 1 1 5 3 0 0 1 1 1 1 5 6 7 6 5 6 8 9 9 9 9 8 8 9 13 18 20 22 21 23 25 19
6 7 7 7 13 21 20 20 19 18 17 15 8 7 10 15 18 10 7 7 6 5 5 5 5 5 5 5 5 5 4 4 5 4 4 5 4 3 3 5 4 1 1 2 7 4 3 3 1 2 2 1 4 5 7 6 5 4 7 7 8 8 7 8 8 9 8 8 8 13 17 23 22 23
8 7 8 9 16 17 19 19 19 18 18 11 8 14 16 17 17 11 7 7 7 6 5 6 6 5 5 5 4 4 4 3 4 5 4 3 4 4 4 3 3 5 3 2 3 5 4 1 2 0 2 3 6 6 6 7 7 8 7 5 6 7 6 7 8 8 9 9 9 19 18 19 22 23
8 8 9 11 19 18 20 20 19 18 13 10 16 17 17 18 15 8 7 7 6 6 6 6 6 5 5 5 5 4 3 4 4 5 4 4 4 4 4 4 4 4 4 4 4 4 4 2 1 1 1 3 4 6 7 6 6 7 9 8 6 5 6 7 7 8 8 9 9 8 8 10 11 11
8 11 15 19 20 20 20 20 18 14 13 17 17 17 18 15 7 7 7 7 7 7 7 6 5 5 4 4 5 4 4 4 4 4 3 3 3 3 4 4 3 3 3 3 4 2 3 1 1 3 2 1 2 4 4 7 6 7 8 10 8 6 8 6 7 8 9 9 8 8 7 8 9 9
17 20 22 21 20 17 16 12 8 7 8 14 16 17 13 7 7 7 8 7 8 7 7 7 7 6 5 5 5 4 3 5 4 3 2 4 4 4 3 4 4 4 4 3 4 3 3 1 1 1 2 3 2 3 4 4 6 6 7 6 8 9 3 6 8 8 10 11 10 9 8 8 9 9
13 17 15 12 14 12 16 14 12 11 12 10 9 6 6 6 6 7 8 8 8 7 7 7 6 5 5 5 5 4 4 4 1 2 4 5 1 2 1 4 1 2 4 3 2 2 3 3 3 2 2 4 3 3 4 3 5 6 7 6 5 7 9 8 7 8 9 10 10 9 9 8 8 8
11 11 13 15 11 10 10 9 7 6 6 6 7 6 5 6 6 7 7 6 4 4 5 6 6 6 5 5 5 4 5 5 2 2 4 3 2 2 2 2 1 0 2 4 4 4 3 2 2 3 2 2 3 4 3 3 5 6 7 6 5 7 6 7 9 8 9 10 10 9 9 8 8 8
10 10 9 9 9 9 10 8 8 7 7 5 5 7 6 6 7 7 7 7 7 7 8 8 8 7 6 5 4 5 5 4 3 2 5 2 6 1 2 4 4 2 1 4 3 5 3 4 2 2 3 3 4 4 3 6 6 3 4 6 6 6 5 6 6 9 9 9 9 9 10 8 7 8
10 9 9 8 9 9 8 8 8 8 7 7 7 6 6 7 7 6 6 6 6 7 7 7 7 6 6 6 6 6 6 3 2 4 6 2 3 3 3 5 4 3 3 3 2 3 3 4 6 6 4 3 4 7 7 5 6 5 5 5 5 6 7 5 7 8 8 7 9 10 10 10 9 7
9 9 9 7 7 7 8 8 8 8 8 8 7 7 6 6 7 6 6 6 7 7 6 6 6 6 7 7 6 7 6 7 4 2 2 4 3 5 5 6 4 4 4 2 1 1 0 2 4 6 6 8 10 6 5 8 1 5 4 6 4 5 8 6 6 7 8 8 5 7 10 10 9 8
7 7 8 8 7 7 8 7 7 8 8 8 8 8 7 7 6 7 7 5 6 6 6 6 6 6 6 6 6 6 6 7 6 6 3 4 6 3 4 5 4 4 4 3 1 1 0 1 1 3 4 4 5 6 7 7 5 2 3 5 4 5 7 7 7 6 7 6 5 6 9 11 11 10
8 6 7 8 8 8 8 8 8 8 8 8 8 7 8 8 6 4 4 5 6 6 5 5 6 6 6 5 6 6 7 7 6 4 5 3 3 4 4 3 4 3 3 3 3 1 1 0 1 3 2 2 1 3 7 3 8 5 6 2 7 6 7 7 8 8 6 7 8 6 8 10 10 11
8 7 7 7 7 7 6 6 7 7 7 6 6 6 5 5 5 4 4 6 6 4 5 6 4 4 6 7 7 7 5 4 4 5 5 5 5 4 6 4 3 2 2 1 1 1 2 3 2 2 2 0 2 4 5 5 4 4 2 5 6 8 6 7 8 8 9 6 7 8 7 8 9 9
7 8 8 7 7 7 7 7 7 7 6 6 6 6 5 5 5 5 5 5 5 6 5 5 5 6 7 7 7 7 6 6 5 5 5 5 5 5 3 2 1 1 1 0 1 1 1 1 1 3 4 2 2 4 4 6 8 8 9 13 6 5 5 6 8 8 7 8 8 7 7 8 11 18
4 3 5 5 5 6 6 6 6 6 6 6 6 6 6 6 6 6 7 6 5 5 6 7 6 6 5 6 7 4 4 6 7 5 6 5 3 3 4 3 3 2 0 0 1 0 0 1 2 2 3 5 5 6 5 7 8 6 7 7 8 6 6 6 8 9 9 8 9 9 10 8 7 6
4 5 3 5 5 6 6 6 6 6 6 6 5 5 6 6 7 6 7 6 7 6 6 6 7 6 7 7 5 6 6 4 4 3 3 3 4 4 5 4 1 1 1 2 1 2 3 3 3 4 0 2 3 1 1 3 7 8 7 6 5 11 13 11 8 8 9 10 8 8 9 9 9 8
5 6 4 5 6 6 7 7 7 7 7 7 6 7 6 5 6 6 6 6 6 5 6 6 6 6 6 6 6 5 5 5 5 4 5 5 4 2 4 2 4 1 2 3 3 5 3 0 1 0 0 0 1 1 3 4 7 9 8 7 7 8 12 15 15 13 10 8 7 7 7 7 6 7
5 5 5 5 6 6 7 7 6 6 6 6 7 6 6 6 5 6 5 6 6 6 6 6 5 6 5 4 4 5 4 4 4 5 4 4 5 6 5 4 4 4 5 4 3 2 3 2 1 0 1 0 1 1 4 5 5 7 8 9 9 7 7 11 13 15 15 16 13 8 6 7 9 8
5 5 4 5 6 6 5 6 6 6 6 7 6 6 7 7 6 6 6 6 6 6 6 6 6 6 6 5 4 3 4 5 4 5 6 5 5 6 4 3 3 3 3 3 3 4 2 2 1 1 0 2 1 1 5 4 5 6 6 7 7 8 10 8 8 8 8 9 11 11 13 14 13 15
4 5 5 4 5 5 6 6 6 6 6 6 6 6 6 5 6 6 5 5 5 6 5 6 5 5 4 4 5 5 6 5 5 5 4 4 4 5 4 4 4 3 4 3 2 4 1 1 1 0 1 2 1 2 4 4 6 6 6 6 8 7 7 7 8 10 10 11 12 15 15 16 15 16
Wind_Direction
211 214 210 210 210 209 207 202 204 202 196 191 182 184 186 188 179 175 207 221 215 214 199 186 215 195 191 190 187 185 196 195 191 201 203 208 210 220 228 240 252 261 268 272 275 281 288 293 296 296 296 296 296 295 295 293 294 294 295 299 301 302 302 300 301 303 302 301 301 300 300 300 298 296
208 212 211 210 213 207 204 207 203 201 200 191 190 195 200 185 185 183 191 220 200 201 201 204 178 186 197 192 190 192 198 190 188 193 202 207 215 221 230 243 253 262 269 274 280 285 288 291 293 294 294 294 293 293 294 296 297 298 298 300 303 302 301 302 304 304 304 304 303 303 303 301 299 297
202 205 210 208 215 202 207 204 198 200 197 200 193 199 197 202 202 181 191 207 235 163 195 203 121 163 196 191 191 199 197 189 189 195 200 209 214 217 235 244 255 265 270 274 279 283 289 292 293 291 291 291 291 293 297 298 298 299 301 302 301 301 303 305 305 304 304 304 305 305 304 302 301 301
204 208 210 207 209 204 200 197 197 195 194 187 189 195 199 203 193 159 173 210 216 200 169 165 162 155 175 183 190 205 199 189 198 200 203 204 197 223 245 257 262 265 267 273 278 283 286 288 289 289 289 289 291 293 295 297 300 302 301 302 303 304 306 307 308 306 306 306 307 307 306 306 305 305
201 207 213 212 211 192 196 205 204 201 196 190 194 192 190 196 185 168 176 182 123 49 25 131 165 156 153 183 200 200 196 192 208 206 210 181 198 228 245 256 262 261 265 270 276 279 283 287 289 289 289 288 290 291 294 301 302 302 304 305 307 308 307 307 307 309 309 309 309 307 308 308 309 308
207 204 209 213 206 192 205 197 200 200 193 191 191 195 189 195 191 185 160 161 151 158 54 78 69 131 175 180 183 194 188 207 186 209 221 189 205 231 239 249 260 264 267 272 274 279 284 287 288 290 290 291 293 295 299 303 305 306 307 308 307 308 309 309 310 309 307 307 309 309 309 309 309 309
200 203 209 212 196 182 195 199 203 190 196 193 195 196 191 190 187 191 180 141 142 152 152 145 153 169 187 184 180 193 196 190 164 197 217 220 208 217 231 243 257 270 273 276 281 283 286 287 290 293 296 298 300 302 304 307 308 308 308 308 310 310 310 309 307 305 305 309 306 305 306 306 305 305
198 205 204 206 189 183 191 189 184 184 183 185 187 182 179 178 179 187 168 157 139 157 144 185 175 180 162 188 108 154 147 160 176 191 228 175 208 226 226 235 259 269 273 278 280 282 285 289 294 299 302 305 308 311 312 313 312 312 312 313 314 313 311 310 309 308 308 307 307 306 304 302 302 305
202 205 206 198 183 178 182 175 177 172 174 169 162 166 164 158 154 140 130 125 136 146 156 143 136 137 118 126 126 138 155 188 237 240 229 253 251 262 252 247 250 259 273 280 282 285 288 293 299 309 317 320 320 320 319 316 315 314 315 317 317 315 313 311 309 308 306 308 309 311 311 309 307 307
203 204 205 189 181 178 181 183 170 165 164 157 159 155 149 136 121 111 87 110 122 136 147 153 138 178 167 134 124 140 135 171 242 253 253 272 258 243 273 258 254 254 237 261 276 282 296 311 322 325 320 319 321 320 317 316 317 320 322 320 318 315 313 311 309 308 310 312 312 310 307 306 308 309
204 202 193 181 180 184 184 172 172 164 157 158 158 153 141 127 121 119 126 116 114 126 132 105 145 144 71 120 165 151 158 189 196 210 228 281 245 222 221 281 299 271 278 268 281 308 319 319 319 319 324 322 319 319 321 321 322 324 323 320 316 315 315 314 312 314 313 312 310 309 310 313 312 309
200 197 191 183 184 184 180 175 169 163 158 151 144 151 132 131 128 130 121 111 125 134 145 156 163 146 146 112 82 81 95 148 265 203 186 216 253 278 336 216 264 275 211 310 339 327 339 328 314 311 312 307 311 320 323 320 324 323 318 319 321 320 318 315 314 316 317 316 312 310 310 309 308 309
194 190 184 183 185 184 176 175 169 169 160 152 148 150 136 134 133 131 133 141 143 148 152 141 114 151 150 167 156 167 184 191 202 175 156 188 183 158 265 282 254 246 43 359 319 309 284 286 292 296 297 290 297 304 316 321 314 308 323 323 321 320 319 317 317 317 317 317 316 312 311 313 313 319
193 187 181 182 178 171 166 166 166 165 166 166 156 152 148 146 141 141 143 149 157 157 168 177 162 169 184 177 183 180 197 182 152 141 157 144 155 152 255 269 243 159 81 352 315 282 278 259 277 294 295 291 310 307 322 287 316 326 324 324 324 323 320 319 317 318 318 319 320 320 316 315 316 314
190 182 175 166 165 162 161 166 169 170 167 160 149 147 147 144 143 147 156 169 168 173 179 164 173 179 177 190 181 189 176 171 175 177 137 139 146 134 356 321 295 231 125 298 293 290 275 249 292 297 295 293 311 324 306 329 328 326 327 325 324 323 321 319 319 319 321 322 323 325 326 322 318 316
183 176 167 161 161 165 166 165 167 168 167 160 154 150 152 157 154 163 166 163 164 173 161 168 186 165 182 180 174 181 156 177 136 151 139 154 142 161 169 267 294 262 29 315 301 285 261 240 282 298 274 285 313 333 331 328 328 328 327 326 325 324 324 325 325 325 323 323 324 324 323 324 329 333
178 171 162 157 165 168 163 162 165 162 166 163 154 161 157 136 118 117 102 141 164 161 155 165 175 179 166 167 191 176 168 143 151 161 150 158 157 177 205 245 258 297 303 321 290 292 275 288 284 281 273 90 345 323 324 327 329 328 328 329 329 329 329 327 325 324 324 324 326 326 328 327 332 333
178 173 169 164 164 163 165 169 167 166 166 160 148 139 131 128 113 109 120 124 127 142 157 162 174 171 156 170 166 175 146 144 172 163 185 179 164 185 208 223 256 270 324 327 324 295 289 294 316 303 289 10 333 319 327 331 332 333 335 335 334 333 332 333 333 332 330 330 331 332 333 332 330 328
176 171 169 167 162 162 169 172 169 165 158 144 143 140 131 121 115 112 118 119 122 129 145 147 142 145 146 152 154 167 170 167 185 161 175 180 179 172 341 349 251 279 348 54 356 287 319 343 341 330 359 333 330 325 330 336 345 343 340 340 339 339 339 339 338 337 338 337 336 333 331 331 329 330
171 167 166 164 164 167 170 173 169 159 143 143 140 134 127 117 107 99 111 114 119 127 137 142 144 153 158 162 172 169 176 180 180 177 110 84 94 111 190 242 213 166 18 48 46 294 307 3 357 320 351 344 320 325 331 356 352 348 345 344 346 346 345 343 342 342 341 338 336 334 333 331 332 334
165 165 166 162 161 164 165 171 168 160 151 143 141 133 127 122 121 121 115 128 135 141 145 146 148 160 173 178 187 190 185 184 168 131 123 203 155 120 162 258 164 277 74 2 29 326 307 356 356 320 331 342 301 324 2 17 348 350 349 348 350 348 345 345 344 343 341 339 338 336 333 331 333 344
152 156 159 156 154 159 163 161 152 148 148 140 139 134 133 136 132 134 130 124 143 149 151 156 162 164 162 161 151 156 121 87 106 145 164 166 118 146 196 198 123 267 83 1 21 29 296 15 342 334 309 329 248 52 14 356 343 344 345 350 349 346 346 345 344 342 340 340 338 335 335 337 347 355
143 147 158 160 163 161 161 152 145 140 136 138 143 145 140 143 153 161 154 153 144 138 124 121 112 100 121 79 77 78 79 76 69 81 115 106 127 142 168 147 210 272 160 76 48 54 297 39 322 12 342 336 268 148 57 346 329 323 336 352 347 342 345 345 344 340 339 338 336 337 340 340 347 348
145 143 146 159 164 159 156 152 147 141 143 146 144 144 148 151 162 156 150 153 142 143 144 144 136 118 91 98 84 72 72 71 82 80 72 85 110 127 130 146 196 196 180 1 79 123 267 93 295 32 75 308 311 296 346 336 329 326 352 351 347 342 345 344 341 337 336 337 338 339 339 337 340 341
144 141 146 148 152 154 153 151 149 147 144 141 146 155 162 163 147 142 143 152 147 143 144 148 126 108 103 92 87 78 74 72 63 63 71 65 87 120 134 138 146 175 187 14 72 108 203 142 319 358 325 271 273 311 308 329 318 347 357 350 340 338 337 335 332 327 329 333 335 336 334 335 337 338
148 149 149 149 156 156 150 146 144 146 147 144 140 150 136 133 141 143 143 145 146 144 143 137 127 124 110 99 89 83 76 73 74 78 65 69 73 72 138 152 143 151 243 331 67 110 103 346 89 26 288 267 276 296 306 314 332 15 350 336 335 327 330 327 326 323 326 323 324 326 329 332 333 334
155 149 146 150 154 151 144 143 144 145 145 137 143 139 136 141 144 140 143 142 137 142 148 142 141 133 123 117 118 105 97 80 73 74 74 63 74 69 62 69 112 139 158 128 82 90 103 181 301 85 265 297 304 309 304 320 332 337 324 329 321 317 321 323 320 320 323 324 318 325 330 330 331 332
152 152 153 153 152 145 142 142 144 147 144 144 143 141 143 148 146 135 137 136 140 144 144 143 142 138 131 125 126 129 123 103 87 83 70 57 56 61 47 49 77 101 110 95 88 87 107 129 300 285 280 291 310 318 315 321 325 319 314 313 308 299 320 320 319 321 321 320 315 322 325 326 328 328
150 151 149 147 145 144 145 147 145 142 143 145 145 148 150 143 128 138 137 138 144 153 160 153 137 134 147 141 130 121 109 107 94 85 52 56 49 44 65 75 73 52 55 59 67 64 80 115 227 277 316 292 312 304 315 303 323 309 316 322 321 330 323 317 329 325 321 319 316 320 320 319 320 323
143 145 145 140 141 141 143 139 132 137 144 145 144 139 130 129 138 140 137 146 157 164 157 155 155 153 132 110 106 103 102 103 125 118 88 76 26 33 52 68 16 8 19 14 42 28 16 8 310 276 300 304 298 278 284 302 302 296 304 305 295 307 292 339 327 326 327 325 323 319 316 315 312 314
143 141 139 139 139 129 130 129 130 129 125 120 120 105 123 131 140 143 153 164 162 157 151 141 137 135 116 104 102 115 120 119 123 110 117 104 133 88 45 100 22 357 331 349 2 31 3 341 333 346 325 295 320 277 266 261 282 296 295 299 316 311 314 323 325 327 327 320 315 311 312 312 309 308
138 133 128 125 115 112 111 109 93 90 92 111 120 122 125 128 123 115 108 96 109 118 126 123 119 111 119 134 138 129 126 142 141 128 123 127 128 122 107 70 226 316 321 330 333 341 1 334 329 319 304 254 262 282 310 280 258 267 282 290 297 297 306 318 322 324 324 317 312 309 310 310 308 310
116 114 115 118 122 126 127 124 127 127 123 116 122 128 130 128 122 124 144 149 151 146 139 143 146 149 143 148 147 139 134 151 153 129 105 114 122 72 78 151 179 154 221 294 313 318 330 326 331 308 287 288 262 249 260 294 291 246 255 289 312 301 309 316 319 316 320 316 310 308 310 308 302 305
130 133 133 139 138 139 140 142 146 149 147 145 144 149 140 130 125 136 140 141 145 148 143 143 140 156 154 161 162 156 152 157 161 190 150 176 152 128 149 153 202 207 186 223 265 294 320 337 352 337 339 311 252 218 202 200 248 297 286 299 303 302 305 316 310 313 310 307 308 309 313 311 313 309
136 142 139 144 143 148 152 157 160 156 157 162 156 158 153 140 144 145 145 152 144 139 131 140 150 154 165 171 173 163 168 161 161 114 99 126 143 155 162 160 192 193 185 212 252 266 131 342 20 4 353 352 356 332 204 169 129 257 309 302 298 301 308 310 308 310 304 301 301 296 305 302 308 314
144 151 147 152 159 162 164 167 162 163 163 165 164 157 151 160 160 153 159 160 144 136 132 146 159 166 171 171 175 171 168 163 160 154 153 152 152 165 175 183 177 194 179 186 228 254 145 353 102 66 36 354 18 335 333 197 206 298 299 287 300 294 300 307 307 301 297 301 305 314 311 310 308 312
150 162 160 165 169 173 176 169 170 170 166 165 167 169 160 163 168 151 143 137 126 132 152 153 171 171 171 169 175 178 174 161 168 175 171 183 182 171 168 206 187 181 175 218 185 187 129 85 104 110 90 23 39 284 269 285 293 297 140 271 305 307 314 312 315 310 308 311 305 304 296 298 297 301
161 165 169 173 176 178 167 161 156 160 163 163 155 145 137 122 118 121 122 122 129 140 159 163 175 167 176 175 169 182 180 177 151 169 183 169 165 198 192 196 209 202 195 204 171 158 153 138 128 147 122 116 314 284 305 292 313 284 222 341 309 306 310 306 310 308 309 303 292 295 290 291 294 297
160 169 174 175 173 166 167 166 163 160 155 153 149 148 132 118 127 131 132 133 138 152 148 159 179 180 181 187 183 173 172 167 176 190 191 203 191 188 211 198 209 253 144 197 138 118 97 118 165 161 150 162 211 242 259 291 285 289 302 311 301 296 298 304 302 302 304 308 303 295 276 277 291 300
144 143 150 150 154 147 136 133 139 142 145 145 138 135 141 149 157 145 139 149 154 163 165 182 181 183 190 189 184 170 167 182 187 189 189 192 203 198 200 205 194 197 131 286 334 198 134 214 195 190 205 221 217 235 229 251 272 279 280 292 298 312 303 304 310 312 305 304 308 307 307 311 301 295
125 131 121 125 127 130 133 130 129 125 131 130 130 139 143 149 150 160 161 164 161 162 176 187 187 186 193 189 180 170 188 204 194 194 191 192 206 198 213 203 207 156 162 275 234 273 256 226 223 278 107 207 265 13 14 338 302 299 305 294 301 310 312 318 312 305 301 307 301 299 306 313 307 309
125 120 107 111 131 126 128 129 129 129 131 138 142 146 144 148 154 154 160 166 166 179 181 186 193 190 194 188 186 178 183 194 193 203 195 191 210 225 215 191 189 229 163 232 236 234 241 202 326 43 8 31 32 57 278 256 283 297 298 302 303 311 318 318 322 318 307 298 302 304 304 292 292 294
115 123 125 111 115 125 130 134 138 138 137 138 141 144 139 138 146 155 160 169 175 182 194 198 192 192 194 188 192 186 180 203 199 203 205 199 194 206 226 221 212 205 200 235 250 256 279 288 300 47 26 106 212 157 251 271 266 284 297 308 311 315 308 315 319 320 319 314 310 297 289 306 318 312
131 128 134 139 130 127 121 128 130 132 139 148 149 145 149 148 166 182 178 181 177 194 192 191 190 192 197 193 183 193 198 202 188 192 208 213 209 209 213 220 216 222 224 234 273 277 268 291 283 177 13 274 191 185 256 281 286 279 280 292 305 317 318 320 319 318 314 305 308 317 318 315 309 307
126 130 136 130 125 120 123 124 130 134 136 139 141 149 151 158 171 176 182 179 187 185 181 194 192 198 190 175 169 209 223 207 198 211 202 209 214 218 220 213 220 220 223 214 208 281 263 256 300 248 202 237 185 213 260 258 274 295 294 305 304 309 308 322 332 336 335 326 315 325 331 329 327 325